Ft Lauderdale, FL

1:54 AM EDT on April 25, 2017 (GMT -0400)
Fort Lauderdale-Hollywood International

Weather History for KFLL - February, 2013

Change the Weather History Date:

Sunday, February 10, 2013

  Actual Average Record
Temperature  
Mean Temperature 75 °F 71 °F  
Max Temperature 78 °F 78 °F 88 °F (1949)
Min Temperature 71 °F 64 °F 37 °F (1917)
Degree Days  
Heating Degree Days 0 1  
Month to date heating degree days 2 10  
Since 1 July heating degree days 26 90  
Cooling Degree Days 10 7  
Month to date cooling degree days 51 61  
Year to date cooling degree days 306 231  
Growing Degree Days 24 (Base 50)    
Moisture  
Dew Point 60 °F    
Average Humidity 59    
Maximum Humidity 68    
Minimum Humidity 50    
Precipitation  
Precipitation T in 0.12 in 1.07 in (2002)
Month to date precipitation 0.02 1.09  
Year to date precipitation 1.00 4.72  
Snow  
Snow 0.00 in - - ()
Month to date snowfall 0.0  
Since 1 July snowfall 0.0  
Snow Depth 0.00 in    
Sea Level Pressure  
Sea Level Pressure 30.20 in    
Wind  
Wind Speed 14 mph (ESE)    
Max Wind Speed 23 mph    
Max Gust Speed 29 mph    
Visibility 10 miles    
Events Rain    
T = Trace of Precipitation, MM = Missing Value Source: NWS Daily Summary

Daily Weather History Graph

Daily Weather History Graph

Search for Another Location

Airport or City:

Trip Planner

Search our weather history database for the weather conditions in past years. The results will help you decide how hot, cold, wet, or windy it might be!

Date:

Astronomy

Feb. 10, 2013 Rise Set
Actual Time 6:59 AM EST 6:10 PM EST
Civil Twilight 6:35 AM EST 6:34 PM EST
Nautical Twilight 6:08 AM EST 7:01 PM EST
Astronomical Twilight 5:41 AM EST 7:28 PM EST
Moon 6:55 AM EST (2/10) 6:49 PM EST (2/10)
Length of Visible Light 11h 58m
Length of Day
11h 11m
New Moon, 0% of the Moon is Illuminated
Feb 10
New Moon
Feb 17
First Quarter
Feb 25
Full
Mar 4
Last Quarter
Mar 11
New

Hourly Weather History & Observations

Time (EST) Temp. Dew Point Humidity Pressure Visibility Wind Dir Wind Speed Gust Speed Precip Events Conditions
12:53 AM 72.0 °F 57.9 °F 61% 30.17 in 10.0 mi East 13.8 mph - N/A   Mostly Cloudy
1:53 AM 72.0 °F 59.0 °F 64% 30.16 in 10.0 mi East 13.8 mph - N/A   Scattered Clouds
2:53 AM 72.0 °F 59.0 °F 64% 30.15 in 10.0 mi East 13.8 mph - N/A   Partly Cloudy
3:53 AM 72.0 °F 61.0 °F 68% 30.15 in 10.0 mi East 13.8 mph - N/A   Scattered Clouds
4:53 AM 72.0 °F 59.0 °F 64% 30.15 in 10.0 mi ESE 11.5 mph - N/A   Scattered Clouds
5:53 AM 72.0 °F 59.0 °F 64% 30.16 in 10.0 mi East 11.5 mph - N/A   Scattered Clouds
6:53 AM 72.0 °F 57.0 °F 59% 30.18 in 10.0 mi East 12.7 mph - N/A   Clear
7:53 AM 73.0 °F 57.0 °F 57% 30.20 in 10.0 mi ESE 12.7 mph - N/A   Scattered Clouds
8:53 AM 75.0 °F 57.0 °F 53% 30.22 in 10.0 mi ESE 15.0 mph - N/A   Partly Cloudy
9:53 AM 77.0 °F 57.0 °F 50% 30.24 in 10.0 mi ESE 11.5 mph - N/A   Mostly Cloudy
10:53 AM 73.0 °F 63.0 °F 71% 30.25 in 7.0 mi East 17.3 mph 23.0 mph 0.00 in Rain Light Rain
11:53 AM 75.0 °F 63.0 °F 66% 30.24 in 10.0 mi ESE 15.0 mph 23.0 mph 0.00 in   Overcast
12:53 PM 77.0 °F 61.0 °F 58% 30.22 in 10.0 mi ESE 19.6 mph 26.5 mph N/A   Overcast
1:53 PM 75.9 °F 61.0 °F 60% 30.21 in 10.0 mi East 18.4 mph 24.2 mph N/A   Overcast
2:53 PM 75.0 °F 61.0 °F 62% 30.19 in 9.0 mi ESE 16.1 mph 27.6 mph N/A   Overcast
3:53 PM 75.0 °F 61.0 °F 62% 30.18 in 7.0 mi ESE 15.0 mph 24.2 mph N/A   Mostly Cloudy
4:53 PM 73.9 °F 61.0 °F 64% 30.18 in 10.0 mi ESE 17.3 mph - N/A   Mostly Cloudy
5:53 PM 73.0 °F 60.1 °F 64% 30.18 in 10.0 mi ESE 13.8 mph - N/A   Overcast
6:53 PM 73.0 °F 60.1 °F 64% 30.19 in 10.0 mi ESE 15.0 mph - N/A   Mostly Cloudy
7:53 PM 72.0 °F 60.1 °F 66% 30.21 in 10.0 mi ESE 10.4 mph - N/A   Mostly Cloudy
8:53 PM 73.0 °F 61.0 °F 66% 30.22 in 10.0 mi ESE 12.7 mph - N/A   Mostly Cloudy
9:53 PM 72.0 °F 60.1 °F 66% 30.22 in 10.0 mi ESE 12.7 mph - N/A   Mostly Cloudy
10:53 PM 72.0 °F 61.0 °F 68% 30.21 in 10.0 mi ESE 13.8 mph - N/A   Mostly Cloudy
11:53 PM 72.0 °F 61.0 °F 68% 30.20 in 10.0 mi SE 13.8 mph 21.9 mph N/A   Scattered Clouds